Wind_Speed
61 60 60 60 58 56 57 57 56 58 61 61 59 56 53 52 50 48 52 53 48 47 53 54 52 52 52 52 53 57 58 58 60 62 61 61 61 60 58 56 53 49 46 47 49 50 51 53 54 56 58 58 59 59 60 62 63 64 64 64 63 63 64 64 65 65 64 63 63 61 61 62 62 62 63 63 63 63 63 65 66 67 68 69 71 72 74
60 61 61 60 56 55 55 54 55 59 62 60 58 56 54 53 52 52 55 54 49 48 52 53 50 49 52 55 57 57 58 59 61 62 62 62 61 59 58 56 53 48 46 46 48 48 48 48 51 54 55 55 56 56 57 59 60 60 60 60 60 60 59 59 59 59 58 58 58 58 58 59 60 61 62 63 63 64 66 67 68 69 70 71 73 74 75
60 62 60 56 54 54 54 54 55 59 60 59 57 56 55 55 56 56 54 52 50 48 50 53 52 49 51 56 57 57 58 58 59 61 61 61 61 60 58 55 51 49 48 47 49 49 46 46 50 52 51 51 51 52 54 55 56 56 56 56 56 55 55 55 55 55 55 55 56 57 58 59 61 63 64 66 67 68 69 70 70 71 72 73 74 75 75
59 59 57 54 54 55 54 54 55 57 58 57 57 56 55 55 57 57 55 53 51 48 48 52 55 53 52 53 56 58 59 58 57 58 59 59 59 59 56 54 52 51 51 52 52 50 44 43 47 48 47 47 47 48 50 50 50 51 51 51 51 50 50 50 50 51 52 53 54 56 57 59 61 63 66 67 68 69 70 70 71 72 73 73 73 74 74
58 58 56 54 53 52 51 51 54 56 57 56 56 56 55 55 57 58 57 54 52 50 48 51 57 57 54 54 56 59 61 60 57 56 57 57 57 56 54 52 52 53 54 55 53 48 42 41 43 43 42 44 46 48 49 48 48 48 48 47 47 47 46 47 47 48 50 51 53 54 55 57 59 61 63 65 66 68 68 69 70 70 70 71 72 73 74
59 58 56 53 51 49 49 51 55 56 57 56 56 55 55 56 57 58 56 54 53 51 48 50 56 61 60 58 56 58 62 62 59 57 56 55 55 55 54 54 54 54 55 53 50 47 44 43 43 43 42 43 46 48 49 49 48 47 46 46 46 46 46 47 47 47 48 49 50 52 53 55 57 59 61 63 64 65 66 67 68 69 70 71 71 72 73
58 56 53 51 49 49 52 55 56 57 57 56 56 55 56 56 57 57 56 55 54 51 49 49 54 59 61 60 57 56 60 63 62 58 55 53 53 54 55 55 55 54 54 53 50 50 49 47 46 47 46 45 48 50 49 48 48 47 48 48 48 49 50 51 50 49 49 49 50 51 53 55 57 60 62 63 64 66 67 68 69 70 71 71 72 73 73
57 53 51 50 50 51 54 56 57 57 58 57 56 56 55 55 55 56 56 56 55 53 51 51 51 54 58 59 58 57 58 61 63 61 58 56 55 55 56 56 54 53 53 54 53 52 52 50 48 49 47 45 48 50 49 48 48 49 50 49 49 50 52 52 52 52 53 53 53 54 55 57 60 62 64 65 66 67 69 70 71 72 73 73 74 74 75
55 52 51 52 51 52 54 56 57 57 57 57 56 55 55 55 55 55 55 56 56 54 52 51 50 50 55 59 59 58 59 60 60 60 60 59 58 56 56 56 55 53 53 54 53 53 52 50 48 47 43 40 43 47 49 48 49 49 50 50 51 52 52 52 52 54 55 56 56 57 59 61 63 66 67 68 69 70 71 72 73 73 74 75 75 76 76
54 52 52 51 51 52 54 56 56 56 56 55 54 55 55 55 55 56 55 56 56 55 53 52 50 49 52 56 57 59 62 62 60 58 59 60 60 59 58 57 56 54 54 55 55 55 54 52 49 46 41 37 40 46 49 49 49 49 49 50 51 51 52 52 53 54 55 56 58 60 62 64 67 69 70 71 71 72 72 73 74 75 76 77 77 77 77
52 51 51 50 51 52 53 54 54 53 54 54 54 55 55 54 55 56 56 56 56 56 56 54 50 50 53 55 57 60 63 62 59 59 60 59 59 60 61 61 58 56 54 55 56 56 56 55 52 48 45 45 47 51 53 52 50 49 49 50 49 49 51 53 54 55 56 58 60 63 65 66 68 70 72 73 73 74 74 75 76 77 78 78 78 77 76
51 50 50 49 50 50 51 52 52 52 53 53 53 54 54 55 55 56 56 57 57 57 57 54 50 53 55 54 56 62 64 60 58 58 60 60 59 60 62 62 59 57 55 54 55 57 58 57 54 52 51 52 54 56 57 57 56 56 56 56 54 53 54 56 57 58 59 61 63 64 65 67 68 70 72 73 75 75 76 77 77 78 79 78 76 75 74
51 50 50 49 49 49 50 52 52 51 52 53 53 53 54 55 55 54 56 58 58 58 58 54 52 56 56 52 54 60 61 59 58 57 58 59 59 60 62 62 61 60 58 56 57 58 58 57 56 54 53 54 55 57 59 59 60 60 60 61 60 60 60 61 61 61 62 64 65 66 67 69 71 73 74 75 77 77 77 78 78 78 77 76 74 74 74
52 51 51 50 49 49 50 50 50 50 50 51 51 52 53 55 55 54 56 57 57 59 59 55 54 56 54 50 53 58 58 58 59 59 57 57 57 58 59 61 62 62 61 60 60 59 58 58 57 56 55 55 57 58 59 59 60 61 61 62 62 62 62 62 62 63 64 65 67 68 70 72 74 75 77 77 78 78 78 79 78 77 75 74 73 73 73
52 52 52 51 49 49 49 49 49 49 48 49 49 51 54 55 54 55 56 57 58 59 58 56 55 56 52 48 52 56 56 57 60 61 60 58 57 57 57 59 61 62 63 63 62 61 60 60 59 58 58 57 58 59 59 60 61 62 62 62 62 62 62 63 64 65 66 67 69 71 73 74 76 76 77 77 77 77 78 77 76 74 73 72 72 72 73
52 53 52 51 51 51 50 50 49 48 47 48 50 52 53 54 54 55 55 57 58 59 58 57 56 54 50 50 51 53 54 57 59 60 60 58 58 58 57 58 60 62 63 64 63 62 62 61 62 61 60 59 60 60 60 62 63 63 64 64 64 64 65 66 67 69 70 71 73 74 74 75 75 75 75 76 76 76 75 73 72 71 70 71 71 72 73
51 52 51 51 52 52 51 50 50 49 48 48 49 49 50 52 53 54 55 56 58 57 56 56 55 52 52 52 52 53 55 57 57 58 58 58 58 57 56 57 59 61 63 63 63 63 62 62 62 62 61 62 62 62 62 63 63 64 64 65 65 66 66 67 68 70 71 72 73 73 73 73 73 73 73 73 73 72 70 69 68 68 69 70 71 72 73
50 50 50 51 52 52 51 50 50 50 49 48 47 47 48 49 50 52 53 54 55 56 55 55 53 53 52 51 51 54 56 56 55 55 56 56 57 56 56 57 59 61 62 63 64 64 64 64 64 64 64 64 65 64 64 64 64 64 64 65 65 66 66 67 68 69 70 70 71 71 71 71 71 71 70 70 69 67 66 66 66 67 68 69 70 72 73
47 47 49 50 50 50 51 51 50 49 49 48 47 47 48 48 48 49 50 52 53 52 51 51 51 51 51 51 51 54 56 55 54 54 54 54 55 55 55 57 59 61 62 63 64 65 65 65 65 65 65 66 66 66 65 65 64 64 64 64 65 65 66 67 67 68 68 69 69 69 69 69 69 68 67 66 65 65 64 65 66 67 68 69 71 72 73
45 46 47 46 47 49 51 51 51 49 49 48 48 48 49 49 49 49 49 50 51 49 47 47 48 49 50 51 52 53 53 53 52 52 53 54 54 54 55 56 58 60 62 63 64 64 64 65 65 65 65 66 66 66 66 65 64 64 64 64 64 65 66 66 67 67 67 68 68 68 68 67 67 65 65 64 63 63 64 65 66 67 68 70 71 72 71
43 43 42 43 46 49 50 50 50 49 49 48 47 49 49 48 50 51 50 48 48 47 46 47 48 48 48 49 51 52 52 51 51 51 52 52 52 53 55 56 58 59 60 62 63 63 64 64 64 64 65 66 66 66 65 64 63 63 63 64 64 65 65 65 66 66 67 67 67 67 66 65 64 63 63 62 62 63 64 65 66 68 69 70 70 68 66
37 38 39 40 43 46 46 46 46 47 47 46 46 48 48 48 48 50 50 49 48 48 47 46 47 47 48 49 49 50 49 49 49 51 52 52 52 53 54 56 58 59 60 61 62 63 63 64 64 65 65 66 65 64 63 63 62 62 63 64 64 65 65 65 66 67 67 66 66 65 64 63 63 62 62 61 62 63 64 65 67 68 68 67 65 63 62
34 37 36 35 37 41 43 42 42 42 43 43 43 44 45 46 46 46 46 47 48 48 47 46 45 45 47 49 49 48 48 48 49 50 51 52 52 53 54 55 56 58 59 61 62 62 63 64 64 64 64 64 63 63 63 63 63 63 64 64 64 64 65 66 66 66 65 65 64 63 63 62 61 61 61 61 62 63 64 65 66 65 64 62 61 61 62
32 34 33 33 35 38 38 37 36 36 37 39 39 39 41 42 43 43 43 44 45 47 47 46 45 46 47 48 49 48 48 49 50 50 50 52 52 53 53 53 54 56 57 59 60 62 62 63 63 63 62 62 62 62 63 63 63 63 64 64 64 65 65 66 65 65 64 64 63 61 60 59 59 59 60 61 62 63 64 64 62 61 59 59 60 62 64
29 29 30 31 32 32 31 32 32 32 32 34 36 36 38 39 39 40 41 41 43 45 46 46 47 48 48 49 49 49 50 51 51 51 51 52 53 53 53 53 54 56 57 58 59 60 61 61 62 61 61 62 62 62 63 63 63 64 64 64 65 65 65 65 64 63 62 61 59 58 57 57 58 59 59 60 61 62 61 60 58 57 58 60 62 63 64
26 27 27 28 29 29 30 32 32 31 30 32 33 35 36 38 38 39 40 41 42 44 45 46 48 50 50 51 51 52 52 53 52 53 53 54 54 53 53 54 54 55 57 58 60 60 61 62 61 61 61 62 62 62 63 63 63 64 64 65 65 65 64 63 62 60 58 57 56 55 56 56 57 58 59 59 59 58 57 56 56 58 59 61 62 62 62
27 28 29 30 31 32 33 34 34 33 33 33 34 36 37 38 39 40 41 42 43 45 45 47 48 49 51 52 53 54 54 54 55 54 55 55 55 54 54 54 53 53 56 58 58 58 60 60 60 61 62 62 62 62 63 63 63 64 64 64 63 62 60 58 56 54 53 53 53 54 55 56 57 57 57 57 56 55 55 56 57 59 60 61 61 61 61
29 30 31 33 33 34 35 35 35 35 36 36 37 38 38 39 40 42 43 44 44 46 47 48 49 50 51 53 53 53 53 53 53 53 53 53 53 52 53 52 51 53 56 59 58 58 59 59 60 61 62 62 62 62 62 62 62 62 61 60 57 55 53 51 51 51 51 52 53 54 55 56 56 55 54 54 53 54 55 57 58 59 60 59 59 60 62
31 32 33 34 34 35 36 36 37 38 38 39 40 40 40 41 42 44 44 45 46 47 48 48 49 50 51 51 50 49 49 49 49 49 49 49 48 48 48 48 48 51 54 57 58 59 59 59 60 61 61 61 61 60 60 59 58 56 53 51 49 48 48 49 50 51 52 52 53 54 54 54 53 52 52 52 53 54 55 57 58 59 59 58 59 60 63
33 34 35 35 35 35 35 36 38 38 39 39 40 40 41 41 43 43 43 44 44 45 45 46 46 47 47 47 47 46 46 46 47 47 45 44 44 45 45 46 47 50 53 55 57 57 57 58 59 59 58 57 56 54 52 50 48 46 46 45 46 47 48 49 50 51 52 53 53 52 52 51 51 50 51 52 53 54 56 58 58 58 58 58 60 62 64
33 33 34 34 34 34 35 35 35 35 35 36 38 39 39 40 41 42 42 43 43 44 44 44 44 45 45 46 46 46 46 46 46 45 42 41 41 41 41 43 45 47 50 52 52 52 52 53 52 51 49 47 45 43 42 42 42 43 44 45 47 48 49 50 51 51 52 52 51 51 50 50 50 51 52 53 54 55 57 58 58 58 58 59 61 63 66
31 32 32 32 33 34 34 34 33 33 34 35 37 38 39 40 41 42 42 43 44 44 44 44 45 45 45 45 44 44 44 44 43 41 40 41 39 36 34 35 36 36 37 40 40 41 42 42 42 40 39 38 38 39 40 41 43 44 45 47 48 49 50 50 51 51 51 50 50 49 50 50 51 52 53 54 55 57 58 58 58 58 59 60 63 65 67
32 32 32 32 33 33 33 32 32 32 34 35 37 38 39 39 40 41 41 42 42 42 42 43 43 43 43 42 41 40 39 37 34 33 34 37 37 33 30 30 29 29 30 33 33 33 35 36 37 37 37 37 39 40 42 43 44 45 47 48 49 49 49 50 50 50 49 49 48 49 50 51 52 53 54 55 56 58 58 58 57 58 60 62 64 66 68
30 30 31 31 31 31 31 31 32 33 34 35 36 37 37 37 37 37 37 37 37 37 37 37 37 37 37 36 35 34 31 29 27 28 31 34 34 32 30 29 29 30 31 33 33 33 35 38 39 39 40 41 43 44 45 45 46 47 47 48 49 49 49 49 49 48 48 48 48 49 50 51 53 54 55 56 58 58 58 57 58 59 61 63 65 67 68
29 29 30 30 30 31 31 32 33 33 34 34 34 34 34 33 33 33 33 32 32 32 32 32 32 32 32 31 30 29 28 28 29 31 33 34 34 33 31 30 31 33 34 34 35 36 38 39 40 40 42 43 45 46 46 47 46 47 48 49 49 49 49 49 48 48 48 48 49 50 51 53 54 55 56 58 58 58 58 58 59 61 62 64 66 68 68
27 28 29 30 31 31 32 33 33 33 33 32 32 31 31 30 30 30 30 29 29 29 29 29 29 29 29 29 28 27 28 31 34 35 36 36 36 36 35 35 35 36 37 37 37 38 38 38 39 41 42 44 45 46 47 47 47 48 50 50 50 49 49 49 49 49 49 50 51 52 53 55 56 57 58 58 58 58 58 59 61 62 63 65 67 68 69
27 28 29 30 31 32 33 33 33 32 31 31 30 30 29 29 28 28 28 27 28 28 28 28 29 29 29 29 29 28 29 32 35 38 39 39 39 39 40 40 40 40 40 41 41 41 39 40 41 43 45 47 48 49 49 50 50 51 51 51 51 51 50 50 50 51 51 52 53 54 55 57 58 59 59 58 58 58 59 61 62 63 65 66 67 69 69
27 28 29 30 31 31 31 31 30 30 30 30 29 29 28 28 28 28 27 27 28 28 29 29 29 30 30 31 32 32 32 34 36 38 39 40 40 41 43 43 44 45 46 47 47 45 43 43 45 47 47 49 51 52 53 53 53 53 53 53 53 52 52 52 52 53 53 54 55 57 58 59 60 60 59 59 59 60 61 62 64 65 66 67 68 69 68
28 28 29 29 29 29 29 29 29 29 29 29 29 29 28 28 28 28 28 28 29 29 30 30 31 32 33 34 35 34 35 36 38 39 40 40 41 42 42 43 45 46 48 48 48 46 45 47 49 50 50 52 54 55 55 55 55 55 55 54 54 54 54 55 55 55 55 56 58 59 60 60 60 60 59 59 60 61 63 64 65 66 66 67 69 69 68
26 27 28 28 28 28 28 28 28 28 28 28 28 28 28 29 29 29 30 30 30 31 32 32 33 35 35 36 36 36 37 38 39 40 41 42 42 42 42 42 43 44 45 46 47 47 48 51 52 52 52 54 56 57 57 56 56 55 55 55 56 56 56 57 57 57 58 59 61 61 61 61 60 60 60 61 62 63 64 66 67 67 67 68 69 69 67
24 25 25 26 26 26 27 27 27 27 27 27 27 28 28 29 30 30 31 31 32 33 34 35 36 37 38 38 39 39 39 40 40 41 42 42 43 43 44 45 45 46 46 47 47 48 50 53 54 54 55 57 58 59 58 57 56 56 56 56 57 57 58 58 58 59 60 61 62 62 61 61 61 61 62 63 64 65 66 67 68 68 68 69 70 69 66
23 24 24 25 25 25 26 26 27 27 27 27 28 28 28 29 29 30 31 32 33 34 35 36 38 39 40 41 41 41 41 42 42 43 43 44 44 45 47 48 49 49 50 50 49 50 53 55 56 57 58 59 60 60 59 57 57 57 57 57 58 59 59 59 60 61 61 61 62 61 61 62 62 63 64 65 66 67 68 69 69 70 70 70 70 68 65
24 24 25 25 26 26 27 27 28 28 29 29 29 29 29 30 30 30 31 31 32 33 34 36 38 40 41 42 43 44 44 45 45 46 46 46 47 47 49 50 51 52 53 53 53 55 57 59 59 60 61 61 62 61 60 59 58 58 59 59 60 60 61 61 61 61 61 61 62 62 63 63 64 65 66 67 68 69 69 70 70 71 71 71 69 67 65
26 26 26 27 27 28 28 29 30 30 30 31 31 31 31 31 32 32 32 33 34 34 35 35 37 38 40 42 44 45 46 47 48 48 49 49 50 51 52 53 53 54 55 56 58 60 62 63 63 63 62 61 61 61 61 60 60 60 61 61 61 61 61 61 61 61 61 62 62 63 64 65 66 67 68 69 70 71 71 72 72 72 71 70 68 66 64
28 29 29 29 30 30 30 31 31 32 32 33 33 33 33 33 34 34 34 35 35 36 37 37 38 38 39 41 42 43 45 46 47 48 49 50 51 52 53 54 55 56 58 60 63 65 65 64 63 63 62 61 61 62 62 62 62 62 61 61 61 61 61 61 61 62 63 63 64 65 66 67 68 69 70 71 72 72 73 74 74 73 71 69 67 65 63
31 31 32 32 32 32 32 32 33 33 34 34 34 35 35 35 35 35 36 36 37 37 38 38 39 40 41 42 43 43 44 46 47 48 49 50 51 51 52 53 54 56 58 60 63 64 64 63 62 62 62 63 63 64 64 63 62 61 60 61 61 62 62 63 63 64 65 65 66 67 68 69 70 72 73 73 74 74 75 75 74 72 70 68 66 65 63
33 33 34 34 34 34 35 35 35 35 35 36 36 36 36 36 37 37 38 38 38 39 39 40 40 41 42 43 44 45 46 47 49 50 50 50 51 51 52 53 54 56 57 59 61 63 64 64 63 63 63 64 64 65 65 64 62 61 61 62 63 64 64 65 65 66 67 68 69 69 71 72 73 74 74 75 76 76 76 75 73 71 69 67 65 64 62
35 35 36 36 36 37 37 37 38 38 38 38 38 38 38 39 39 40 40 40 41 41 41 42 42 43 44 44 45 46 47 48 49 50 50 51 51 52 53 55 56 58 59 60 61 63 64 65 65 64 64 64 64 65 65 64 64 63 64 65 66 66 67 68 69 70 70 71 71 72 73 74 75 76 76 77 78 78 77 75 72 69 67 66 65 64 61
37 37 38 38 38 38 39 39 39 39 39 39 40 40 41 41 41 42 42 43 43 44 44 45 45 46 46 47 47 48 49 50 51 52 52 52 52 53 55 56 58 58 59 60 61 63 64 65 66 66 66 66 66 66 66 67 67 67 68 68 69 69 70 71 72 73 73 73 74 75 76 76 77 78 78 79 78 78 76 73 70 68 66 65 64 63 60
38 38 39 39 39 39 40 40 40 41 41 41 42 42 43 43 44 44 45 46 46 47 47 48 48 49 49 50 51 52 53 53 54 55 55 56 56 57 59 60 60 60 61 61 63 64 65 66 67 68 68 68 68 68 69 70 70 70 71 71 72 73 73 74 75 75 76 76 77 77 78 78 79 79 80 79 78 76 73 71 68 67 65 64 63 61 59
39 40 40 41 41 41 41 42 42 42 42 43 43 44 44 44 45 45 46 46 47 47 48 48 49 50 51 52 53 54 55 55 56 57 58 59 60 62 63 63 63 64 65 66 66 67 68 69 70 71 71 71 71 72 73 74 74 74 75 75 76 76 77 77 77 78 78 78 79 79 79 79 79 79 79 78 75 73 71 69 68 66 64 63 61 59 57
41 41 42 42 42 42 42 42 42 42 42 42 43 43 44 44 44 45 45 45 46 46 46 47 47 48 48 49 50 51 53 54 55 56 57 58 60 62 64 65 65 65 67 68 68 69 71 72 72 73 73 74 74 75 76 77 77 78 78 78 78 78 79 78 78 79 79 79 79 79 79 78 78 77 75 74 72 71 70 68 67 65 63 62 59 58 56
Wind_Direction
221 222 223 224 225 223 223 222 218 217 220 222 223 226 227 227 228 227 229 232 228 221 218 219 222 222 221 222 223 223 224 225 226 227 229 231 232 233 234 237 237 237 241 247 250 252 253 254 255 256 256 258 260 260 261 262 263 264 265 266 267 269 271 273 274 275 275 275 276 275 274 275 275 276 278 279 281 282 284 286 288 290 292 294 295 296 297
221 223 224 224 226 226 226 224 220 218 220 221 222 224 225 226 227 226 228 230 228 224 219 217 220 222 222 223 223 223 226 228 228 228 229 231 233 233 235 238 238 238 243 247 249 253 256 255 255 256 257 259 261 262 263 264 265 265 266 267 269 270 271 273 274 275 275 275 275 275 274 274 274 275 276 278 279 282 285 287 289 291 293 294 295 296 296
220 223 226 226 226 227 226 224 222 220 221 221 222 223 223 224 225 227 229 231 230 228 223 218 219 221 223 225 224 224 226 229 230 230 230 232 234 234 235 237 238 240 243 246 249 254 256 254 254 257 260 261 263 264 265 266 266 267 268 269 270 271 272 273 273 274 274 274 274 274 273 273 273 274 275 276 279 282 284 287 289 290 292 293 294 295 296
220 224 226 225 225 227 226 223 222 222 223 224 223 223 222 223 225 226 227 228 229 229 226 222 220 221 224 227 226 225 228 231 232 232 233 234 235 236 237 238 239 240 242 246 250 253 254 253 255 259 261 261 262 265 266 267 268 269 269 269 270 271 272 272 272 272 273 273 274 275 275 275 275 275 276 277 279 281 283 285 287 289 291 293 295 296 298
222 225 226 225 225 226 226 224 223 223 224 225 225 225 224 224 225 226 226 226 227 228 226 223 221 221 223 226 226 227 229 230 232 233 234 236 237 238 238 237 237 239 242 246 250 252 252 249 252 258 259 257 260 264 266 266 268 270 271 271 271 271 271 272 271 271 272 274 276 278 278 278 278 279 279 280 280 282 284 286 288 290 292 294 296 298 300
224 225 226 225 225 224 224 223 222 223 224 225 225 226 225 225 226 227 227 227 229 229 226 224 223 223 224 225 226 227 229 230 232 233 234 236 239 239 239 238 237 238 241 245 248 251 250 246 247 254 255 253 257 263 265 266 267 268 269 269 270 270 269 270 271 272 274 277 278 279 279 280 280 280 280 281 282 284 286 288 290 293 294 296 298 299 300
225 225 225 225 223 221 220 220 221 222 224 225 225 226 226 225 226 227 227 228 230 230 229 227 226 226 226 226 227 229 230 232 233 233 234 237 239 239 239 238 238 238 240 244 247 249 249 246 247 251 251 251 257 263 264 266 267 267 267 266 267 266 266 267 269 271 275 277 278 279 279 279 280 280 281 282 284 285 287 290 292 294 295 297 298 299 300
225 224 224 223 221 218 218 219 220 221 223 224 225 226 225 225 226 227 227 228 231 231 230 230 230 228 227 227 228 230 231 232 233 234 234 237 238 239 239 239 239 240 241 243 245 246 248 247 247 250 251 255 262 264 265 266 268 267 266 266 267 267 266 266 268 271 274 276 277 278 279 281 282 283 283 284 285 287 289 290 292 294 295 296 297 299 300
224 222 221 221 219 218 219 220 221 222 223 224 225 225 225 223 224 225 227 229 231 233 233 234 234 232 230 228 229 231 233 233 234 234 234 235 236 238 239 240 240 241 242 243 243 244 246 247 247 249 251 255 260 262 263 264 264 264 264 266 268 269 269 269 271 273 275 275 277 279 281 282 283 284 285 286 287 288 290 291 293 294 295 297 298 299 299
223 222 221 220 218 218 219 221 222 223 224 226 225 225 224 223 223 223 225 228 231 233 233 234 235 236 234 231 229 231 234 234 234 234 235 235 235 237 239 239 239 240 243 244 244 245 246 246 245 245 244 243 247 252 256 258 258 259 261 265 268 270 271 273 274 275 275 276 277 279 281 282 283 284 286 287 288 290 291 292 294 295 296 297 298 299 299
224 223 222 220 219 220 221 222 223 224 226 227 226 224 223 222 223 223 224 227 231 232 233 233 234 236 236 232 229 230 231 232 233 234 235 236 236 237 238 238 238 239 241 243 244 245 246 246 244 242 239 237 240 247 252 255 256 258 260 264 267 270 271 273 274 275 276 277 278 280 280 282 283 286 288 290 291 293 294 295 296 297 297 298 299 299 300
224 224 223 222 221 222 223 224 225 225 226 226 226 224 222 222 223 223 224 226 229 232 234 233 233 235 236 234 232 232 230 230 232 235 237 237 237 237 238 238 238 238 240 243 245 245 246 246 245 242 240 239 242 247 252 256 259 262 263 265 266 268 269 271 273 274 276 277 278 279 281 282 284 287 289 292 293 294 295 296 297 298 298 299 299 299 299
224 225 225 225 224 223 224 226 227 227 226 226 224 223 222 222 223 223 224 226 229 231 233 232 232 236 237 235 235 235 232 230 231 234 236 237 238 238 238 238 238 238 240 243 245 244 245 246 246 245 244 243 244 248 252 257 260 263 266 266 267 267 268 270 271 273 274 276 277 279 281 283 285 287 289 290 292 293 294 295 296 297 298 298 299 298 298
223 224 225 226 226 226 227 228 229 228 227 225 224 222 221 222 223 224 225 228 229 232 233 232 233 238 239 236 237 237 234 231 231 232 233 236 238 240 240 240 239 240 241 243 244 246 247 249 249 249 248 247 247 249 252 256 259 262 265 267 267 268 269 270 272 274 275 276 277 279 281 283 285 286 288 289 291 292 293 294 295 296 297 298 298 298 298
222 223 225 226 227 228 229 229 229 229 227 225 223 222 222 222 223 224 226 229 231 233 235 234 235 239 240 238 238 239 236 234 233 234 235 237 240 242 243 244 243 242 241 243 245 247 249 250 250 251 251 251 251 252 253 255 257 260 263 265 267 269 271 273 275 276 278 278 279 280 282 283 285 287 288 289 290 291 292 293 294 295 296 297 297 297 297
221 223 225 226 227 228 229 229 229 228 226 224 222 222 221 222 223 225 227 229 232 234 236 237 238 241 242 241 239 239 238 236 235 236 237 238 240 243 245 245 245 244 243 244 246 247 248 249 250 252 253 254 255 255 256 257 258 260 262 264 267 269 272 274 276 277 279 280 281 283 284 285 286 287 288 289 290 291 292 293 294 295 296 296 296 297 297
222 223 225 226 227 228 228 228 228 227 226 224 223 222 222 223 224 226 229 231 233 235 237 239 241 242 243 243 240 238 238 237 236 236 237 238 240 243 245 246 246 245 245 246 247 247 248 249 251 252 254 255 256 257 258 259 260 262 264 266 268 270 272 274 275 277 279 280 282 283 284 285 286 287 287 288 290 291 292 294 294 295 295 296 296 297 298
222 223 225 226 227 228 228 228 228 228 227 226 224 223 223 224 225 227 229 233 235 236 237 239 241 242 242 242 241 239 238 238 237 237 237 238 240 243 245 246 245 245 246 246 247 248 249 250 251 252 254 256 257 259 261 262 264 265 267 268 270 272 273 275 276 278 279 281 282 283 284 285 286 287 288 289 291 292 293 294 294 295 295 296 297 298 299
221 222 223 224 225 227 228 228 229 229 229 228 227 225 223 224 225 227 230 233 235 237 238 239 241 241 240 238 238 239 239 238 238 237 238 239 240 241 243 244 245 245 246 247 248 250 251 252 254 255 256 258 260 262 263 265 266 267 269 270 272 273 274 276 277 279 280 281 282 284 285 286 287 288 289 291 292 293 294 294 294 295 296 297 298 299 300
218 219 221 222 224 226 227 227 228 230 230 229 229 228 226 225 225 227 230 233 235 237 238 238 239 239 238 236 236 238 238 238 239 239 239 240 240 241 242 243 244 245 246 247 249 251 253 255 256 257 259 260 261 263 264 266 267 269 270 272 273 274 275 277 278 280 281 282 283 284 286 287 288 289 290 291 292 293 294 294 295 296 297 298 298 299 300
217 217 219 220 221 224 226 227 228 230 231 231 231 231 230 229 228 228 229 232 234 235 236 237 236 236 236 236 237 238 239 239 241 242 242 243 242 242 242 242 243 245 247 248 250 251 253 255 256 258 259 260 262 263 265 267 269 270 271 272 274 275 276 278 279 280 281 283 284 285 286 287 288 289 290 291 292 293 294 294 295 296 297 298 299 300 300
214 215 218 220 220 222 225 227 228 230 231 232 232 232 232 233 232 231 231 233 233 233 234 236 235 234 234 236 238 240 240 242 243 244 245 245 245 245 244 243 243 244 246 248 250 251 253 254 256 257 259 261 263 265 267 268 270 271 272 273 274 276 277 278 279 281 282 283 284 285 286 287 288 289 291 291 292 293 294 295 296 297 298 299 300 301 302
210 210 213 216 218 220 223 225 227 229 230 231 232 232 233 234 233 232 232 232 230 229 230 232 233 234 235 237 239 241 242 243 244 245 246 247 247 246 246 245 245 246 247 249 250 252 254 255 256 258 260 262 264 266 268 269 270 271 272 274 275 276 277 278 279 281 282 283 283 284 286 287 288 289 290 291 292 293 294 295 296 297 298 299 301 302 304
205 206 207 209 214 219 221 221 224 229 231 231 231 231 231 231 231 230 229 228 226 225 225 227 229 231 233 234 237 239 240 242 244 245 247 247 247 247 248 248 248 248 249 250 252 253 255 257 258 260 262 263 265 266 268 269 270 271 272 273 275 276 277 278 279 280 281 282 283 284 285 287 288 289 290 291 292 293 294 295 296 297 299 301 302 303 304
199 200 202 205 210 215 216 215 218 223 226 227 227 226 225 226 226 226 225 225 224 225 225 226 229 230 231 233 234 236 238 240 243 245 247 248 248 249 249 248 248 249 249 250 252 254 255 257 258 260 261 263 264 266 267 269 270 271 272 273 275 276 277 278 279 280 281 281 282 284 285 286 287 288 290 291 292 293 294 295 297 299 301 302 303 303 304
197 198 201 205 208 209 209 209 212 216 220 223 225 225 224 225 225 226 226 226 227 229 230 231 232 234 235 236 237 238 240 242 244 246 248 249 250 249 249 249 249 250 251 251 252 253 255 256 258 259 261 262 263 265 266 268 269 271 272 274 275 276 277 278 279 279 280 280 282 283 284 285 287 288 289 290 291 292 294 296 298 300 301 302 303 303 304
201 202 204 208 210 211 211 211 213 215 218 222 225 227 227 228 229 230 231 230 231 232 234 235 236 238 239 241 242 243 245 246 247 248 249 249 249 248 248 248 247 249 251 252 252 253 255 257 258 260 261 262 264 265 267 268 270 271 272 274 275 276 276 277 277 277 278 280 281 282 284 285 286 288 289 289 291 293 295 297 299 301 302 302 303 304 306
208 209 211 213 214 215 216 216 217 219 221 223 226 228 230 231 232 234 235 235 235 236 237 238 240 241 243 244 246 247 247 248 248 248 247 247 248 247 247 247 247 248 250 252 254 255 257 258 260 261 262 263 264 266 267 269 270 271 272 273 273 273 274 274 275 276 277 279 280 282 283 285 286 287 288 290 292 295 297 299 300 302 303 304 305 306 308
214 216 218 220 221 221 222 222 222 223 225 227 230 231 232 234 236 237 238 239 239 239 240 241 242 243 244 244 245 245 246 246 246 246 246 246 247 247 247 248 247 247 249 252 254 256 257 259 260 261 262 264 265 267 268 269 269 269 269 269 269 270 271 273 274 275 277 279 280 282 283 284 286 287 289 291 293 295 297 300 302 303 304 305 306 308 309
218 220 223 225 226 228 228 228 228 229 230 231 233 234 235 236 237 238 239 240 240 239 239 239 240 241 242 243 243 243 244 244 245 245 246 247 249 250 250 250 249 249 250 253 255 256 257 258 259 261 262 263 264 265 265 265 264 264 264 265 267 269 270 272 274 276 278 279 281 282 283 284 286 287 289 291 293 296 299 302 303 304 305 306 307 309 311
217 219 222 224 226 228 229 229 230 231 233 234 235 235 236 236 237 238 239 240 240 240 240 240 241 242 243 244 244 244 245 245 246 246 246 246 247 247 246 247 249 250 251 252 254 255 256 257 257 258 259 259 259 259 259 259 260 261 263 265 267 269 271 273 275 277 279 280 281 282 283 284 286 287 290 292 295 298 301 303 304 304 305 307 308 310 312
216 218 220 222 225 228 229 229 229 230 232 234 236 237 238 238 239 241 242 242 243 243 243 243 244 244 245 246 246 246 246 245 246 245 242 239 237 234 232 235 241 245 246 248 249 250 251 251 251 251 251 252 253 254 255 257 259 261 263 266 268 270 272 275 276 278 279 280 281 282 283 285 287 289 291 294 297 300 302 303 304 304 306 307 309 311 312
219 220 222 224 226 229 231 232 232 233 234 236 237 238 239 240 241 241 242 243 244 244 244 244 244 244 245 244 244 243 242 240 238 236 231 227 226 224 221 224 232 238 243 246 248 248 250 250 248 247 248 249 251 253 255 257 260 262 265 268 270 272 274 276 277 278 279 280 281 283 285 287 289 291 294 296 299 301 302 302 303 304 306 308 310 311 313
220 222 224 226 228 231 233 234 234 234 235 235 236 236 237 238 238 238 239 240 240 241 241 241 241 240 240 238 236 234 231 224 218 216 213 212 213 213 214 218 227 235 241 246 249 250 252 253 251 249 249 249 251 253 255 257 260 264 266 269 272 274 276 277 278 279 280 282 284 286 288 290 291 293 295 298 300 301 301 302 303 304 306 308 310 312 313
223 224 226 227 228 229 230 230 231 231 231 232 233 234 235 235 235 236 236 236 236 237 237 236 235 233 231 228 225 222 216 207 201 202 204 206 207 209 211 217 225 232 238 244 248 250 253 256 257 257 256 255 255 256 258 260 263 267 270 273 275 276 278 279 280 281 282 285 287 288 290 291 293 295 296 298 299 300 300 301 303 304 307 309 311 312 313
227 227 227 227 227 227 227 228 229 229 229 230 231 232 233 233 233 233 233 233 233 233 231 229 227 224 221 220 217 213 208 203 201 201 204 207 209 210 211 215 223 229 235 241 245 249 252 256 259 262 263 263 263 264 266 268 271 273 275 277 278 279 280 281 282 283 285 287 288 290 291 292 294 295 297 298 298 298 299 301 302 305 307 309 311 312 313
229 228 228 228 228 228 228 229 229 229 229 229 229 230 231 232 232 232 231 230 229 228 226 223 220 218 216 216 215 212 209 207 206 206 208 210 212 213 213 216 220 226 231 236 239 243 247 251 255 258 261 264 266 268 270 272 274 276 277 278 278 280 281 282 283 285 287 288 289 290 292 293 294 295 296 296 296 297 299 301 303 305 307 310 311 313 314
225 227 228 229 229 229 229 229 229 229 228 228 229 230 231 231 232 232 231 230 228 226 224 221 219 217 216 217 217 215 213 211 212 212 213 215 217 218 219 221 223 227 231 234 237 239 243 247 251 253 256 260 264 266 269 271 273 274 275 277 279 281 282 283 284 285 287 288 289 290 291 292 293 294 295 295 295 297 299 301 303 306 308 310 311 313 313
223 224 225 227 229 229 229 229 228 228 228 229 231 231 231 232 232 233 233 232 230 228 225 223 221 221 221 221 222 221 220 218 218 218 219 219 221 223 225 227 230 233 236 239 241 243 245 248 250 252 254 257 261 264 266 268 270 272 275 277 280 282 282 283 284 285 286 287 288 289 290 291 292 292 293 293 295 297 299 301 304 306 308 310 312 312 313
227 227 227 228 229 230 230 231 231 232 232 233 234 235 235 235 235 234 234 234 233 231 229 227 226 226 226 227 227 227 227 227 227 226 226 226 226 227 228 230 233 237 241 244 247 248 250 251 253 255 256 258 260 263 265 266 269 271 274 276 278 279 280 281 282 284 285 286 287 288 289 289 290 290 291 293 295 297 299 302 304 306 308 310 311 312 312
234 234 235 235 236 237 238 239 239 240 241 241 241 240 240 240 240 239 238 237 236 235 233 232 231 231 231 232 231 231 231 233 233 234 234 234 234 233 233 234 235 237 240 243 247 250 253 255 257 258 259 261 262 264 266 267 269 270 272 273 275 276 278 279 281 282 283 284 285 286 287 287 288 289 291 293 295 298 300 302 304 306 308 310 311 311 310
234 236 237 238 240 241 243 244 245 245 246 246 245 245 244 244 244 243 242 241 240 238 237 236 236 235 236 237 237 236 235 236 237 237 238 239 239 240 240 241 242 243 244 245 246 249 251 254 257 259 260 262 263 265 267 269 270 270 271 272 274 275 277 278 279 281 281 282 283 284 285 286 288 290 292 294 296 298 300 302 304 306 308 309 310 309 309
236 237 238 239 240 241 242 244 245 246 247 247 247 247 246 246 246 245 245 245 244 242 241 240 239 239 239 239 241 241 240 240 240 240 241 242 242 243 245 246 247 249 250 251 250 250 251 254 256 258 260 262 265 267 269 270 270 271 271 273 274 275 277 278 279 280 281 281 282 283 284 286 288 290 292 294 296 298 300 302 304 305 307 308 308 308 306
239 240 240 241 242 242 243 245 246 247 248 249 250 250 250 249 248 248 248 247 247 246 246 244 243 242 241 241 241 242 243 243 244 244 244 244 245 245 246 248 249 250 251 252 252 252 253 255 257 259 262 264 267 268 269 269 270 270 272 273 275 276 277 277 278 279 279 280 281 283 285 287 289 290 292 294 296 298 300 301 303 305 306 307 306 305 304
242 243 244 245 245 246 246 247 248 249 250 251 252 252 252 253 252 252 251 250 250 249 249 248 247 247 246 245 244 244 244 245 245 245 245 245 245 246 247 248 249 250 250 251 252 254 255 257 260 263 265 267 268 268 268 268 269 270 272 273 274 275 276 276 277 278 279 280 282 284 285 287 289 290 292 294 296 298 299 300 302 304 305 305 304 303 303
245 246 248 249 250 250 251 252 252 253 253 254 255 255 255 255 255 255 255 254 253 252 251 251 250 250 249 249 248 248 248 247 247 247 247 247 247 247 247 248 248 249 250 251 254 257 259 260 261 262 264 265 266 267 268 268 269 271 272 273 273 274 275 276 277 278 279 281 282 284 286 287 289 291 292 294 296 297 298 300 302 303 303 303 302 301 301
248 250 251 253 254 255 256 257 257 258 258 259 259 260 259 259 259 259 259 258 258 257 256 256 255 254 253 252 252 251 251 250 250 250 250 250 250 250 250 250 250 250 251 252 254 256 258 260 260 261 262 263 264 266 268 269 271 271 272 272 273 274 275 276 277 278 280 281 283 285 286 287 289 290 292 293 294 295 297 299 301 301 301 300 299 299 299
252 253 254 256 257 258 259 260 260 261 262 262 263 263 263 263 263 263 262 262 261 260 260 259 259 258 257 257 256 255 255 255 254 254 254 254 254 253 253 252 252 252 252 253 254 256 258 260 261 263 263 264 265 267 268 270 270 271 271 272 273 274 275 277 278 279 280 282 283 285 286 287 288 290 291 292 293 295 296 298 299 299 299 298 297 297 298
255 257 258 259 260 260 261 262 263 264 264 265 265 265 265 265 265 264 264 264 263 263 262 261 261 260 260 260 259 259 259 258 258 259 258 258 257 257 256 255 255 256 256 256 257 258 260 261 263 264 265 266 267 268 269 270 270 271 271 272 274 275 276 277 278 279 281 282 283 284 285 287 288 289 290 291 292 294 295 297 297 297 296 296 295 296 296
259 261 262 263 263 264 265 265 266 267 267 268 268 268 267 267 266 266 265 265 264 264 263 263 262 262 262 261 261 260 260 260 260 261 261 261 261 260 260 259 260 260 260 260 260 260 261 262 263 265 266 267 268 268 269 270 271 271 272 273 274 275 275 276 277 279 280 281 282 283 285 286 287 288 289 290 292 293 294 295 294 294 293 293 294 294 294
263 264 265 266 266 267 268 268 269 269 269 270 270 269 269 269 268 267 267 266 265 265 264 264 263 263 262 262 261 261 261 261 261 261 261 261 261 261 261 261 261 262 262 262 262 262 263 264 264 265 266 267 268 268 269 269 270 271 271 272 273 274 275 276 277 278 279 280 282 283 284 285 286 287 288 289 291 292 292 292 292 292 292 292 292 292 291
264 265 266 267 268 269 270 270 271 271 271 271 271 270 270 270 269 269 268 268 267 267 266 265 265 264 263 262 262 261 261 261 261 261 260 260 260 261 261 262 262 262 262 262 263 263 264 264 265 265 265 266 267 267 268 268 269 270 271 272 272 273 275 276 277 278 279 280 281 282 283 284 285 286 287 288 289 290 290 290 290 291 291 291 291 290 289
Height
10466 10472 10476 10479 10484 10490 10492 10497 10505 10510 10512 10517 10523 10529 10535 10539 10545 10549 10546 10546 10556 10562 10564 10567 10571 10574 10580 10583 10585 10586 10587 10589 10591 10593 10597 10599 10603 10607 10611 10615 10620 10625 10630 10632 10631 10631 10632 10634 10634 10634 10633 10633 10633 10634 10634 10634 10635 10636 10638 10639 10641 10641 10641 10640 10640 10640 10640 10639 10638 10638 10636 10635 10635 10634 10633 10632 10631 10631 10629 10627 10626 10624 10622 10620 10618 10616 10613
10463 10466 10470 10476 10482 10487 10491 10496 10503 10505 10507 10513 10520 10525 10529 10534 10539 10541 10539 10543 10551 10555 10559 10564 10568 10571 10575 10575 10575 10578 10580 10582 10585 10588 10592 10595 10599 10603 10607 10611 10617 10623 10627 10627 10627 10627 10629 10631 10630 10627 10627 10628 10628 10629 10629 10630 10631 10632 10633 10635 10636 10636 10636 10635 10635 10634 10634 10633 10632 10632 10631 10630 10629 10628 10627 10627 10626 10625 10623 10621 10620 10618 10616 10614 10611 10608 10606
10458 10461 10467 10474 10480 10483 10487 10493 10498 10501 10505 10510 10515 10519 10524 10529 10533 10535 10536 10541 10547 10551 10556 10561 10565 10567 10568 10567 10570 10573 10575 10577 10580 10584 10587 10591 10595 10599 10604 10609 10615 10620 10622 10622 10622 10621 10624 10626 10624 10622 10624 10625 10625 10625 10625 10626 10627 10628 10629 10630 10630 10631 10630 10630 10629 10628 10628 10627 10626 10626 10625 10624 10624 10623 10622 10621 10620 10619 10617 10616 10614 10612 10610 10608 10605 10601 10598
10455 10459 10465 10471 10475 10478 10483 10489 10495 10499 10503 10508 10512 10515 10520 10525 10527 10530 10533 10537 10541 10546 10552 10557 10560 10561 10563 10564 10567 10570 10571 10574 10577 10580 10584 10588 10592 10596 10602 10608 10613 10615 10615 10615 10615 10617 10622 10623 10620 10620 10622 10622 10621 10621 10620 10621 10622 10623 10624 10625 10626 10626 10625 10624 10624 10623 10622 10622 10621 10620 10620 10619 10618 10617 10616 10615 10614 10613 10612 10611 10609 10607 10604 10601 10598 10594 10591
10453 10456 10460 10466 10471 10476 10482 10488 10492 10496 10500 10504 10508 10512 10517 10521 10522 10525 10529 10532 10536 10540 10546 10550 10552 10554 10556 10558 10561 10564 10566 10569 10572 10576 10581 10585 10589 10594 10599 10604 10607 10608 10608 10609 10611 10616 10621 10619 10616 10617 10619 10617 10616 10614 10614 10615 10617 10617 10619 10620 10620 10620 10620 10619 10619 10618 10617 10617 10616 10615 10615 10614 10612 10611 10610 10609 10608 10608 10606 10605 10603 10600 10598 10594 10591 10587 10584
10447 10451 10456 10463 10470 10476 10481 10484 10487 10490 10494 10498 10503 10508 10512 10515 10517 10521 10526 10529 10531 10536 10542 10545 10545 10546 10549 10552 10555 10559 10562 10564 10568 10573 10578 10583 10587 10591 10594 10598 10600 10601 10603 10606 10609 10613 10613 10612 10611 10612 10612 10611 10610 10609 10609 10610 10612 10613 10613 10614 10615 10615 10614 10614 10614 10613 10613 10612 10612 10611 10609 10608 10606 10605 10604 10603 10603 10602 10600 10599 10596 10594 10591 10587 10584 10581 10577
10442 10448 10455 10461 10468 10473 10475 10477 10480 10485 10489 10493 10498 10502 10507 10511 10514 10519 10523 10525 10527 10533 10538 10540 10541 10543 10547 10551 10554 10557 10558 10560 10564 10570 10575 10580 10582 10585 10588 10590 10594 10597 10600 10603 10606 10606 10605 10605 10606 10604 10605 10607 10606 10605 10606 10606 10607 10608 10608 10608 10609 10609 10609 10609 10609 10609 10609 10607 10606 10605 10604 10602 10601 10599 10598 10598 10597 10596 10594 10592 10589 10587 10584 10581 10578 10574 10571
10439 10446 10453 10458 10462 10466 10468 10470 10475 10479 10483 10488 10493 10497 10502 10508 10511 10515 10519 10521 10523 10528 10533 10535 10538 10542 10546 10548 10551 10553 10554 10555 10559 10565 10570 10573 10575 10577 10581 10584 10589 10593 10595 10597 10598 10598 10598 10600 10601 10600 10602 10605 10603 10600 10601 10602 10601 10601 10602 10602 10602 10602 10603 10604 10604 10604 10603 10602 10601 10600 10598 10596 10595 10593 10592 10592 10591 10589 10588 10585 10583 10580 10577 10574 10571 10568 10564
10436 10443 10448 10451 10456 10461 10464 10467 10471 10475 10478 10483 10488 10493 10498 10503 10507 10511 10515 10517 10519 10524 10529 10532 10535 10539 10541 10543 10547 10549 10549 10550 10555 10561 10564 10566 10568 10571 10575 10579 10583 10586 10588 10590 10592 10593 10593 10595 10597 10597 10601 10605 10602 10597 10596 10596 10595 10595 10596 10597 10597 10597 10598 10599 10599 10598 10597 10596 10595 10593 10592 10590 10588 10586 10585 10585 10584 10583 10581 10578 10575 10573 10570 10567 10564 10561 10557
10433 10439 10443 10448 10453 10457 10460 10463 10467 10472 10475 10479 10484 10489 10494 10498 10502 10506 10510 10512 10515 10519 10523 10526 10530 10534 10535 10537 10542 10544 10542 10545 10551 10556 10557 10559 10563 10566 10569 10572 10576 10579 10582 10583 10586 10587 10588 10590 10592 10593 10597 10601 10598 10592 10589 10589 10590 10591 10592 10592 10592 10593 10593 10594 10594 10593 10592 10591 10589 10588 10586 10584 10582 10580 10578 10578 10577 10575 10573 10571 10568 10565 10563 10559 10556 10553 10549
10432 10437 10441 10446 10450 10453 10456 10460 10464 10469 10473 10476 10480 10485 10490 10495 10498 10501 10505 10508 10510 10513 10516 10521 10526 10528 10527 10530 10535 10534 10534 10540 10547 10550 10552 10555 10559 10561 10563 10566 10570 10574 10576 10578 10580 10581 10582 10583 10586 10588 10591 10592 10590 10586 10584 10584 10586 10587 10587 10588 10589 10589 10589 10589 10589 10588 10587 10585 10584 10582 10580 10579 10576 10574 10572 10570 10569 10567 10565 10562 10560 10557 10554 10551 10548 10545 10541
10430 10434 10438 10443 10447 10450 10454 10457 10461 10465 10468 10472 10476 10481 10486 10491 10493 10497 10502 10503 10505 10507 10509 10516 10522 10520 10519 10524 10527 10525 10529 10539 10544 10545 10547 10550 10554 10555 10557 10560 10565 10568 10571 10573 10574 10574 10575 10577 10580 10583 10584 10584 10583 10582 10581 10581 10581 10582 10582 10583 10584 10585 10585 10584 10584 10583 10582 10580 10578 10576 10574 10573 10571 10568 10566 10563 10561 10559 10557 10555 10552 10549 10546 10544 10541 10537 10534
10427 10431 10435 10439 10444 10448 10450 10453 10456 10460 10464 10467 10472 10478 10483 10486 10489 10494 10497 10497 10500 10501 10503 10511 10516 10512 10513 10521 10522 10520 10527 10536 10538 10538 10541 10544 10548 10550 10552 10556 10560 10563 10565 10567 10567 10567 10569 10572 10574 10576 10578 10579 10579 10578 10577 10577 10577 10577 10577 10578 10579 10580 10580 10580 10579 10578 10576 10574 10572 10570 10568 10567 10565 10562 10560 10558 10555 10553 10550 10548 10545 10543 10540 10537 10534 10530 10527
10424 10428 10431 10435 10440 10444 10446 10449 10453 10456 10460 10464 10470 10474 10478 10481 10485 10490 10491 10493 10496 10496 10498 10506 10509 10506 10511 10519 10518 10517 10524 10531 10531 10532 10536 10539 10543 10545 10547 10550 10553 10557 10559 10560 10560 10562 10564 10566 10568 10571 10572 10573 10573 10573 10573 10573 10573 10573 10573 10573 10574 10574 10574 10574 10573 10572 10570 10568 10566 10564 10562 10560 10558 10556 10554 10551 10549 10546 10544 10541 10539 10536 10533 10530 10527 10523 10520
10420 10424 10427 10432 10436 10439 10442 10446 10449 10452 10457 10462 10466 10469 10472 10476 10481 10484 10486 10489 10491 10491 10495 10501 10502 10503 10511 10516 10514 10515 10521 10525 10526 10528 10532 10536 10539 10540 10542 10545 10547 10550 10552 10553 10554 10557 10559 10560 10562 10564 10566 10567 10567 10567 10568 10568 10568 10569 10569 10568 10569 10569 10568 10568 10567 10565 10563 10562 10560 10558 10556 10554 10552 10549 10547 10545 10542 10540 10537 10535 10532 10530 10527 10523 10520 10516 10513
10417 10420 10424 10429 10432 10434 10437 10441 10444 10448 10452 10456 10459 10463 10468 10472 10476 10479 10481 10484 10485 10487 10492 10496 10499 10504 10509 10509 10509 10513 10516 10517 10519 10523 10527 10531 10533 10534 10536 10539 10541 10543 10545 10546 10548 10550 10552 10554 10555 10557 10559 10561 10561 10562 10563 10563 10563 10564 10564 10564 10564 10563 10562 10561 10560 10558 10556 10555 10553 10551 10549 10546 10544 10542 10540 10538 10536 10533 10531 10529 10526 10523 10520 10516 10513 10510 10506
10413 10417 10421 10425 10428 10429 10433 10436 10439 10443 10447 10451 10455 10460 10465 10469 10472 10474 10477 10479 10481 10485 10489 10493 10497 10502 10503 10503 10505 10508 10508 10510 10514 10518 10521 10525 10527 10529 10532 10533 10535 10537 10539 10540 10542 10543 10546 10548 10549 10551 10554 10554 10554 10555 10557 10557 10558 10559 10559 10559 10558 10557 10556 10555 10553 10551 10549 10548 10546 10544 10541 10539 10537 10535 10533 10531 10529 10527 10524 10522 10519 10516 10513 10510 10506 10503 10499
10409 10414 10418 10421 10424 10427 10430 10432 10435 10438 10443 10447 10452 10457 10461 10464 10467 10471 10473 10475 10478 10481 10485 10488 10492 10495 10496 10499 10501 10501 10501 10504 10509 10512 10516 10519 10521 10524 10526 10527 10529 10531 10532 10534 10535 10536 10539 10541 10542 10545 10547 10547 10548 10550 10550 10551 10552 10552 10552 10552 10552 10551 10550 10548 10546 10545 10542 10541 10539 10536 10534 10533 10530 10528 10526 10524 10522 10520 10517 10515 10512 10509 10506 10503 10500 10496 10492
10406 10410 10413 10416 10420 10423 10426 10429 10432 10435 10439 10443 10448 10452 10456 10460 10464 10467 10469 10471 10473 10476 10480 10484 10486 10488 10491 10493 10494 10493 10495 10500 10504 10507 10510 10513 10515 10518 10519 10521 10522 10524 10525 10527 10528 10530 10532 10534 10536 10539 10540 10541 10542 10543 10543 10545 10546 10545 10546 10545 10544 10543 10542 10541 10539 10537 10535 10533 10531 10529 10528 10526 10523 10521 10519 10517 10516 10513 10511 10508 10505 10502 10499 10496 10493 10489 10485
10401 10404 10408 10413 10417 10420 10422 10425 10429 10432 10435 10439 10443 10447 10451 10455 10459 10462 10465 10467 10468 10472 10476 10479 10480 10482 10485 10487 10487 10488 10491 10495 10499 10502 10504 10506 10509 10512 10513 10514 10516 10517 10519 10521 10522 10524 10526 10527 10530 10532 10532 10533 10534 10535 10536 10538 10538 10539 10538 10538 10537 10536 10534 10533 10532 10530 10528 10526 10524 10522 10521 10519 10517 10515 10513 10511 10509 10507 10504 10502 10499 10495 10492 10489 10486 10482 10478
10397 10401 10406 10410 10412 10414 10417 10421 10426 10429 10432 10435 10439 10442 10446 10450 10454 10457 10460 10463 10464 10467 10470 10472 10474 10477 10480 10481 10482 10484 10487 10491 10494 10497 10498 10500 10503 10506 10507 10509 10510 10511 10513 10515 10516 10518 10520 10521 10523 10524 10525 10525 10526 10528 10529 10531 10531 10531 10531 10530 10529 10528 10527 10526 10524 10522 10521 10519 10517 10516 10514 10512 10510 10508 10506 10505 10503 10500 10497 10495 10492 10489 10486 10482 10478 10475 10471
10396 10400 10402 10405 10408 10410 10413 10417 10421 10424 10428 10432 10435 10438 10442 10445 10448 10451 10455 10458 10459 10462 10464 10466 10469 10473 10476 10476 10478 10480 10483 10487 10489 10490 10492 10495 10497 10499 10501 10502 10504 10506 10508 10509 10510 10512 10513 10514 10515 10516 10517 10518 10520 10521 10523 10523 10524 10524 10523 10522 10521 10520 10519 10518 10517 10515 10514 10513 10511 10509 10507 10505 10504 10502 10500 10498 10496 10493 10491 10488 10485 10482 10478 10475 10472 10468 10465
10393 10395 10398 10403 10407 10408 10409 10413 10417 10420 10424 10428 10431 10434 10437 10440 10443 10446 10449 10452 10454 10456 10459 10462 10465 10469 10471 10472 10474 10477 10480 10481 10483 10485 10487 10489 10490 10492 10494 10497 10499 10501 10503 10503 10504 10505 10506 10507 10508 10510 10511 10512 10514 10515 10515 10516 10516 10516 10515 10514 10514 10513 10512 10511 10510 10508 10507 10506 10504 10502 10501 10499 10497 10496 10494 10492 10489 10487 10484 10481 10478 10475 10472 10469 10466 10462 10459
10390 10393 10397 10402 10404 10405 10407 10412 10415 10418 10422 10424 10427 10431 10433 10435 10438 10441 10444 10446 10449 10451 10454 10458 10461 10463 10465 10467 10469 10473 10474 10475 10477 10479 10481 10482 10484 10486 10489 10492 10494 10496 10497 10498 10498 10499 10500 10501 10503 10504 10505 10506 10507 10508 10508 10509 10509 10508 10508 10507 10507 10506 10505 10504 10503 10502 10500 10499 10497 10496 10494 10493 10491 10489 10487 10485 10482 10480 10477 10475 10472 10469 10466 10463 10460 10456 10453
10390 10393 10397 10399 10402 10404 10407 10411 10413 10415 10418 10421 10424 10426 10429 10431 10434 10436 10439 10442 10445 10447 10451 10454 10457 10458 10460 10462 10464 10467 10468 10469 10472 10473 10475 10476 10478 10481 10484 10487 10489 10490 10491 10492 10492 10493 10494 10496 10497 10498 10499 10500 10500 10501 10501 10502 10501 10501 10501 10500 10499 10498 10498 10497 10496 10495 10493 10492 10491 10490 10489 10487 10485 10483 10481 10479 10476 10474 10471 10469 10466 10463 10460 10457 10454 10450 10447
10390 10393 10395 10398 10400 10403 10405 10407 10410 10413 10416 10418 10421 10423 10425 10428 10430 10433 10435 10439 10441 10444 10447 10450 10452 10453 10455 10457 10459 10460 10462 10464 10466 10468 10470 10471 10473 10476 10479 10481 10483 10485 10485 10486 10487 10488 10488 10489 10491 10492 10493 10493 10494 10495 10495 10495 10495 10495 10494 10493 10492 10491 10491 10490 10489 10488 10487 10486 10485 10484 10483 10481 10479 10477 10475 10473 10470 10468 10465 10463 10460 10458 10455 10452 10448 10445 10441
10389 10391 10393 10395 10397 10399 10402 10404 10407 10410 10413 10415 10417 10419 10422 10425 10427 10429 10432 10434 10437 10439 10442 10445 10447 10448 10450 10451 10452 10455 10457 10459 10461 10463 10464 10465 10467 10470 10472 10475 10480 10482 10480 10479 10481 10482 10482 10484 10486 10486 10486 10486 10487 10488 10488 10488 10488 10488 10487 10486 10485 10485 10484 10484 10483 10482 10481 10480 10479 10478 10477 10475 10473 10471 10469 10466 10464 10462 10459 10457 10454 10452 10449 10446 10442 10439 10435
10388 10389 10390 10391 10394 10396 10399 10402 10405 10408 10410 10412 10413 10415 10418 10421 10423 10425 10427 10430 10432 10435 10437 10439 10441 10442 10444 10445 10446 10448 10451 10453 10454 10456 10457 10458 10461 10464 10467 10471 10476 10477 10475 10474 10475 10476 10477 10479 10479 10479 10479 10480 10481 10481 10482 10482 10481 10481 10480 10479 10479 10479 10478 10478 10477 10476 10476 10475 10474 10473 10471 10469 10467 10465 10463 10461 10458 10456 10454 10451 10448 10445 10442 10439 10436 10433 10429
10386 10387 10388 10389 10392 10394 10397 10400 10402 10404 10406 10407 10409 10412 10415 10417 10418 10420 10422 10424 10426 10429 10431 10433 10435 10436 10437 10438 10440 10442 10444 10446 10447 10448 10450 10453 10456 10459 10462 10466 10470 10471 10470 10469 10469 10470 10471 10472 10472 10472 10472 10473 10474 10475 10475 10475 10474 10474 10474 10473 10473 10473 10472 10472 10471 10471 10470 10469 10468 10467 10465 10463 10461 10459 10457 10455 10453 10450 10448 10446 10442 10439 10436 10434 10430 10427 10423
10383 10384 10386 10388 10390 10392 10395 10397 10399 10400 10402 10404 10406 10408 10410 10412 10413 10415 10417 10419 10421 10423 10425 10427 10428 10429 10430 10432 10434 10436 10438 10439 10440 10442 10446 10449 10452 10454 10457 10460 10462 10463 10463 10463 10462 10464 10465 10466 10465 10465 10466 10467 10468 10468 10468 10468 10468 10468 10468 10468 10468 10467 10467 10467 10466 10465 10464 10463 10462 10460 10458 10457 10455 10453 10451 10449 10447 10445 10443 10440 10437 10434 10431 10428 10425 10421 10417
10380 10381 10383 10386 10388 10389 10391 10393 10395 10397 10400 10401 10402 10404 10406 10407 10408 10410 10412 10414 10415 10417 10419 10421 10423 10424 10425 10426 10428 10430 10432 10433 10435 10438 10441 10443 10445 10447 10451 10453 10454 10455 10455 10455 10456 10458 10459 10459 10459 10460 10461 10461 10462 10462 10463 10463 10463 10463 10463 10463 10462 10462 10462 10461 10460 10459 10458 10457 10456 10454 10452 10451 10449 10448 10446 10444 10441 10439 10437 10434 10431 10428 10425 10422 10419 10415 10412
10376 10378 10380 10382 10384 10385 10387 10389 10392 10394 10395 10396 10398 10399 10401 10402 10404 10405 10407 10408 10410 10411 10414 10415 10417 10418 10419 10421 10423 10424 10426 10427 10430 10433 10435 10436 10437 10440 10444 10446 10447 10448 10449 10449 10451 10453 10453 10453 10454 10455 10456 10456 10457 10457 10457 10458 10458 10458 10458 10457 10457 10456 10456 10455 10454 10453 10452 10451 10449 10448 10446 10445 10443 10442 10440 10438 10435 10433 10431 10428 10425 10423 10420 10416 10413 10409 10405
10373 10375 10376 10378 10380 10381 10383 10385 10388 10389 10391 10392 10393 10394 10396 10397 10399 10400 10401 10403 10404 10406 10407 10409 10410 10412 10414 10416 10417 10419 10421 10423 10427 10429 10430 10431 10433 10436 10439 10441 10443 10444 10444 10445 10446 10448 10449 10449 10449 10450 10451 10451 10451 10452 10452 10453 10453 10453 10452 10451 10451 10450 10450 10449 10448 10447 10445 10444 10443 10442 10440 10439 10437 10436 10434 10432 10430 10427 10425 10422 10420 10417 10414 10411 10408 10404 10400
10371 10372 10373 10375 10377 10378 10380 10382 10383 10385 10386 10388 10389 10390 10391 10392 10394 10395 10396 10398 10399 10400 10402 10404 10406 10407 10409 10411 10413 10415 10417 10420 10424 10426 10427 10428 10430 10432 10435 10437 10439 10441 10441 10442 10443 10444 10444 10443 10444 10445 10446 10446 10446 10447 10447 10447 10447 10447 10446 10445 10445 10444 10443 10442 10441 10440 10439 10439 10437 10436 10434 10433 10431 10429 10428 10426 10424 10421 10419 10416 10414 10412 10409 10406 10402 10398 10394
10368 10369 10371 10372 10374 10375 10377 10378 10380 10381 10382 10384 10385 10386 10387 10389 10390 10391 10392 10394 10395 10396 10398 10400 10402 10403 10405 10407 10409 10412 10414 10417 10420 10422 10424 10425 10426 10428 10431 10433 10435 10436 10437 10438 10439 10440 10439 10439 10439 10440 10441 10441 10441 10441 10441 10441 10442 10441 10440 10439 10438 10438 10437 10436 10435 10434 10433 10432 10431 10430 10428 10426 10425 10423 10421 10419 10417 10415 10413 10411 10409 10406 10403 10400 10396 10391 10388
10366 10367 10368 10369 10371 10372 10374 10375 10377 10378 10379 10381 10382 10383 10384 10386 10387 10388 10389 10391 10392 10394 10396 10397 10399 10400 10402 10404 10406 10409 10411 10413 10415 10416 10418 10420 10422 10424 10426 10428 10430 10431 10433 10434 10435 10435 10435 10435 10435 10435 10435 10435 10435 10435 10435 10435 10435 10434 10433 10432 10432 10431 10430 10430 10429 10428 10427 10426 10425 10423 10422 10420 10418 10417 10415 10413 10411 10409 10407 10405 10403 10400 10397 10394 10390 10385 10381
10364 10365 10366 10367 10368 10370 10371 10373 10374 10376 10377 10378 10379 10380 10382 10383 10384 10385 10387 10388 10390 10391 10393 10395 10396 10397 10399 10401 10403 10405 10408 10410 10411 10413 10414 10416 10418 10420 10421 10423 10424 10426 10428 10429 10429 10430 10430 10430 10430 10430 10430 10430 10429 10429 10429 10429 10428 10428 10427 10426 10425 10425 10424 10424 10423 10422 10421 10420 10418 10417 10415 10414 10412 10410 10409 10407 10405 10403 10401 10399 10396 10394 10391 10388 10384 10379 10375
10361 10363 10364 10365 10366 10368 10369 10370 10372 10373 10374 10375 10376 10378 10379 10380 10382 10383 10384 10386 10387 10389 10391 10392 10394 10395 10396 10397 10399 10402 10404 10406 10408 10409 10411 10413 10415 10416 10418 10419 10420 10420 10421 10421 10422 10423 10424 10424 10424 10425 10426 10425 10424 10423 10423 10423 10422 10421 10420 10420 10419 10419 10418 10418 10417 10416 10415 10413 10412 10410 10409 10407 10405 10404 10402 10400 10398 10396 10394 10392 10390 10387 10385 10381 10377 10373 10369
10359 10360 10361 10363 10364 10365 10367 10368 10369 10370 10371 10372 10374 10375 10376 10378 10379 10380 10382 10383 10385 10386 10388 10389 10391 10392 10393 10395 10396 10398 10400 10402 10404 10406 10407 10409 10411 10412 10414 10415 10415 10415 10415 10416 10417 10419 10420 10418 10418 10419 10420 10419 10418 10417 10417 10417 10416 10415 10414 10414 10414 10413 10412 10412 10411 10410 10408 10407 10405 10403 10402 10400 10399 10397 10395 10394 10392 10390 10388 10386 10383 10381 10378 10374 10371 10367 10363
10357 10358 10359 10360 10362 10363 10364 10365 10366 10367 10369 10370 10371 10373 10374 10375 10376 10378 10379 10380 10382 10383 10385 10387 10388 10389 10390 10392 10394 10395 10397 10399 10401 10402 10404 10405 10406 10407 10409 10410 10411 10411 10411 10412 10412 10413 10413 10411 10411 10413 10413 10412 10411 10411 10411 10411 10410 10410 10409 10409 10408 10407 10406 10406 10404 10403 10402 10400 10398 10396 10395 10393 10392 10390 10388 10387 10385 10383 10381 10379 10376 10374 10371 10368 10364 10360 10356
10355 10356 10357 10358 10360 10361 10362 10363 10364 10365 10366 10367 10368 10370 10371 10372 10373 10375 10376 10377 10379 10380 10382 10383 10384 10386 10387 10388 10389 10391 10393 10395 10396 10398 10399 10400 10401 10402 10403 10404 10404 10404 10405 10405 10406 10407 10406 10404 10405 10406 10406 10405 10404 10404 10404 10404 10404 10404 10404 10403 10402 10401 10401 10400 10398 10397 10395 10393 10391 10389 10388 10386 10385 10383 10381 10380 10378 10376 10374 10372 10369 10367 10364 10361 10357 10354 10350
10353 10354 10355 10356 10357 10358 10359 10360 10361 10362 10363 10364 10365 10366 10367 10368 10370 10371 10372 10373 10375 10376 10377 10379 10380 10382 10383 10384 10385 10387 10389 10390 10391 10392 10393 10395 10396 10397 10397 10397 10398 10398 10398 10399 10400 10400 10398 10397 10398 10399 10399 10398 10397 10397 10397 10398 10398 10398 10397 10397 10396 10395 10394 10393 10391 10390 10389 10386 10384 10383 10381 10379 10378 10376 10374 10373 10371 10369 10367 10365 10362 10360 10357 10354 10350 10347 10343
10350 10351 10352 10353 10354 10355 10356 10357 10357 10358 10359 10360 10361 10362 10363 10364 10366 10367 10368 10369 10370 10371 10373 10374 10375 10376 10378 10379 10380 10382 10383 10384 10385 10387 10388 10389 10390 10391 10391 10392 10392 10392 10393 10393 10394 10392 10391 10390 10391 10392 10392 10392 10391 10390 10390 10391 10392 10391 10390 10390 10389 10388 10387 10385 10384 10383 10381 10380 10378 10376 10374 10373 10371 10369 10367 10365 10364 10362 10360 10358 10356 10353 10350 10347 10344 10340 10337
10347 10348 10349 10350 10351 10351 10352 10353 10354 10355 10355 10356 10357 10358 10359 10360 10361 10362 10363 10365 10366 10367 10368 10369 10370 10371 10372 10373 10374 10375 10376 10378 10379 10381 10382 10383 10384 10385 10385 10385 10386 10387 10387 10386 10385 10384 10383 10383 10384 10385 10385 10386 10384 10383 10382 10384 10384 10384 10383 10383 10382 10380 10379 10378 10376 10375 10374 10372 10370 10369 10367 10366 10364 10362 10360 10358 10356 10354 10352 10350 10348 10346 10343 10340 10337 10333 10330
10343 10344 10345 10346 10347 10347 10348 10349 10350 10351 10351 10352 10353 10354 10355 10356 10357 10358 10359 10360 10361 10362 10363 10364 10365 10366 10367 10367 10368 10369 10370 10372 10373 10373 10374 10375 10377 10377 10378 10379 10380 10380 10379 10378 10376 10375 10376 10377 10378 10379 10379 10378 10377 10375 10374 10375 10376 10377 10376 10376 10374 10372 10371 10370 10369 10367 10366 10365 10363 10362 10360 10358 10356 10355 10353 10351 10349 10347 10345 10342 10340 10338 10336 10333 10329 10326 10323
10339 10340 10341 10341 10342 10343 10344 10345 10346 10346 10347 10347 10348 10349 10350 10351 10352 10353 10354 10355 10356 10357 10357 10358 10359 10360 10361 10362 10362 10363 10364 10365 10365 10365 10366 10368 10369 10370 10371 10372 10372 10372 10372 10371 10370 10369 10369 10371 10372 10372 10371 10370 10369 10367 10366 10367 10369 10370 10369 10367 10366 10364 10363 10362 10361 10360 10358 10357 10356 10355 10353 10351 10349 10347 10345 10344 10342 10340 10337 10335 10333 10331 10328 10325 10322 10318 10315
10335 10336 10336 10337 10338 10339 10339 10340 10341 10341 10342 10343 10343 10344 10345 10346 10346 10347 10348 10349 10350 10350 10351 10352 10353 10354 10355 10355 10356 10357 10357 10357 10358 10358 10359 10361 10362 10363 10364 10364 10364 10364 10365 10365 10364 10363 10362 10362 10363 10363 10363 10363 10361 10360 10359 10360 10361 10362 10361 10359 10358 10356 10355 10354 10353 10352 10350 10349 10349 10347 10346 10344 10342 10340 10338 10336 10334 10332 10330 10328 10326 10324 10321 10318 10314 10311 10309
10331 10332 10332 10333 10333 10334 10335 10335 10336 10336 10337 10337 10338 10339 10339 10340 10340 10341 10341 10342 10343 10344 10344 10345 10346 10347 10347 10348 10349 10350 10350 10350 10350 10351 10353 10354 10355 10356 10356 10356 10355 10356 10357 10357 10357 10356 10354 10353 10353 10354 10354 10354 10354 10353 10352 10352 10353 10353 10352 10351 10350 10349 10348 10347 10345 10344 10343 10342 10341 10340 10338 10336 10334 10332 10331 10329 10326 10324 10322 10320 10318 10316 10313 10310 10306 10303 10301
10326 10327 10327 10328 10329 10329 10330 10330 10330 10331 10331 10332 10332 10333 10333 10333 10334 10334 10334 10335 10335 10336 10337 10337 10338 10339 10339 10340 10341 10342 10342 10342 10342 10343 10344 10345 10346 10347 10347 10347 10347 10348 10349 10350 10349 10349 10347 10346 10346 10346 10346 10346 10346 10346 10345 10344 10344 10344 10343 10342 10342 10341 10340 10338 10337 10336 10335 10334 10333 10331 10330 10328 10327 10324 10322 10320 10318 10316 10314 10312 10311 10308 10305 10302 10299 10296 10294
10321 10322 10322 10322 10323 10324 10324 10324 10325 10325 10325 10325 10326 10326 10326 10326 10326 10327 10327 10327 10328 10328 10328 10329 10329 10330 10331 10331 10332 10332 10333 10333 10334 10335 10335 10337 10337 10337 10336 10337 10338 10339 10340 10341 10341 10340 10339 10338 10338 10337 10337 10337 10338 10338 10337 10336 10335 10335 10334 10334 10333 10332 10331 10330 10329 10328 10327 10326 10325 10324 10322 10321 10318 10316 10313 10311 10309 10307 10306 10304 10302 10299 10297 10295 10292 10290 10287
10316 10317 10317 10317 10317 10318 10318 10318 10318 10318 10319 10319 10318 10318 10318 10318 10318 10318 10319 10319 10319 10319 10320 10320 10321 10321 10322 10322 10323 10323 10323 10324 10325 10325 10326 10327 10328 10327 10325 10326 10328 10329 10329 10330 10330 10330 10330 10329 10329 10329 10329 10329 10329 10329 10328 10327 10326 10326 10325 10325 10324 10323 10322 10321 10321 10320 10319 10318 10316 10316 10314 10312 10310 10307 10305 10302 10300 10299 10297 10295 10292 10290 10288 10287 10285 10282 10280
10311 10311 10311 10311 10311 10312 10312 10312 10312 10312 10312 10312 10311 10311 10311 10311 10311 10310 10310 10310 10311 10311 10311 10311 10312 10312 10313 10313 10313 10314 10314 10314 10314 10315 10316 10318 10318 10317 10315 10315 10317 10318 10319 10319 10320 10320 10320 10319 10319 10319 10319 10319 10320 10319 10319 10318 10317 10316 10316 10315 10315 10314 10314 10313 10313 10312 10310 10309 10308 10307 10305 10303 10301 10299 10297 10294 10292 10290 10288 10286 10284 10282 10280 10278 10276 10274 10272